Regional Weather Roundup
Issued by NWS

Home | Current Version | Previous Version | Text Only | Print | Product List | Glossary On
Versions: 1 2 3 4 5 6 7 8 9 10 11 12 13 14 15 16 17 18 19 20 21 22 23 24 25 26 27 28 29 30 31 32 33 34 35 36 37 38 39 40 41 42 43 44 45 46 47 48 49 50
000
ASUS46 KSTO 290315
RWRCA

NORTHERN AND CENTRAL CA REGIONAL WEATHER ROUNDUP
NATIONAL WEATHER SERVICE SACRAMENTO CA
800 PM PDT TUE MAR 28 2017

NOTE: FAIR INDICATES FEW OR NO CLOUDS BELOW 12,000 FEET WITH NO
SIGNIFICANT WEATHER AND/OR OBSTRUCTIONS TO VISIBILITY.

CAZ001-003-290400-
NORTHWEST AREA

CITY           SKY/WX    TMP DP  RH WIND       PRES   REMARKS
CRESCENT CITY  CLOUDY    53  46  77 CALM      30.30F
UKIAH          PTCLDY    62  35  36 N7        30.22R
$$

CAZ006-505>513-290400-
BAY AREA

CITY           SKY/WX    TMP DP  RH WIND       PRES   REMARKS
SANTA ROSA     PTCLDY    63  40  42 NW13      30.16R
SAN RAFAEL     N/A       64  MM  MM MISG
NAPA           CLEAR     61  51  70 W7        30.16R
CONCORD        CLEAR     66  48  52 W9        30.15R
OAKLAND CITY   N/A      MM  MM  MM MISG
OAKLAND        PTCLDY    62  50  64 NW6       30.17R
SAN FRAN CITY  N/A       61  MM  50 MISG
SAN FRAN ARPT  PTCLDY    59  44  57 W17       30.17S
LIVERMORE      CLEAR     64  41  42 NE5       30.15R
HAYWARD        CLEAR     61  49  64 CALM      30.17R
REDWOOD CITY   N/A       61  MM  52 MISG
MOFFETT ARPT   CLEAR     62  44  51 NW7       30.17R
SAN JOSE ARPT  PTCLDY    62  47  57 NW17      30.17R
$$
CAZ034-037-514>518-290400-
CENTRAL COAST

CITY           SKY/WX    TMP DP  RH WIND       PRES   REMARKS
WATSONVILLE    CLEAR     61  46  57 CALM      30.16R
SALINAS        CLEAR     59  49  69 SW10      30.17R
MONTEREY       CLEAR     57  48  72 VRB6      30.19R
SAN LUIS OBISP CLEAR     59  49  69 SW6       30.10R
SANTA MARIA    CLEAR     53  49  86 W3        30.10R
$$
CAZ015-016-290400-
NORTHERN SACRAMENTO VALLEY

CITY           SKY/WX    TMP DP  RH WIND       PRES   REMARKS
REDDING        CLEAR     63  41  44 NE8       30.18R
RED BLUFF      CLEAR     64  42  44 NW7       30.18R
OROVILLE       CLEAR     65  44  46 NW8       30.13S
$$
CAZ016>018-290400-
SOUTHERN SACRAMENTO VALLEY

CITY           SKY/WX    TMP DP  RH WIND       PRES   REMARKS
AUBURN         CLEAR     55  45  67 CALM      30.14S
BEALE AFB      CLEAR     63  47  57 NW14      30.09S
LINCOLN        FAIR      63  41  45 NW10      30.09F
MARYSVILLE     CLEAR     66  44  45 NW17      30.11S
SAC INTL ARPT  PTCLDY    63  47  55 NW12      30.11S
MATHER AIRPORT PTCLDY    66  45  45 N8        30.11S
DOWNTOWN SAC   N/A       68  MM  MM MISG
SAC EXEC ARPT  CLEAR     65  47  52 NW6       30.12S
VACAVILLE      CLEAR     64  43  46 NW6       30.15S
TRAVIS AFB     CLEAR     60  46  59 NW9       30.13R
$$
CAZ019>021-290400-
SAN JOAQUIN VALLEY

CITY           SKY/WX    TMP DP  RH WIND       PRES   REMARKS
STOCKTON       CLEAR     62  45  53 W8        30.13R
MODESTO        CLEAR     65  44  46 NW5       30.13R
MERCED         CLEAR     58  46  64 SE3       30.13S
LEMOORE        PTCLDY    55  43  63 NW8       30.15S
FRESNO         PTCLDY    63  47  55 N5        30.15R
HANFORD        CLEAR     60  48  64 NW7       30.14R
PORTERVILLE    CLEAR     59  48  67 NW5       30.15R
BAKERSFIELD    CLEAR     61  46  57 NW5       30.14R
$$
CAZ011-012-071-290400-
NORTHERN MOUNTAINS

CITY           SKY/WX    TMP DP  RH WIND       PRES   REMARKS
YREKA          CLEAR     49  40  71 NW3       30.27S
MOUNT SHASTA   CLEAR     48  34  58 NE3       30.27R
ALTURAS        CLEAR     43  31  62 CALM      30.29S
$$
CAZ011-012-071-290400-
SIERRA NEVADA MTNS

CITY           SKY/WX    TMP DP  RH WIND       PRES   REMARKS
BLUE CANYON    CLEAR     46  28  49 NE8       30.23F
TRUCKEE        CLEAR     39  27  60 CALM      30.30R
TAHOE VLY ARPT CLEAR     40  27  59 W3        30.28R
MAMMOTH LAKES  FAIR      44  18  34 NW7       30.29R
$$




USA.gov is the U.S. government's official web portal to all federal, state and local government web resources and services.